STARLINK-1334, 45556

Orbit data source: Space-Track

STARLINK-1334, 45556 is a payload satellite owned by SpaceX/Seattle (US) in LEO that was launched on Wed, 22 Apr 2020 UTC via an FALCON 9 launch vehicle from the Air Force Eastern Test Range (AFETR). Payload-class satellites include a variety of spacecraft equipped with specific instruments for various scientific and technological missions. These include communications satellites like Starlink; space stations such as the ISS; scientific satellites like the Hubble; Earth observation satellites from companies like Planet Labs, Umbra, and HawkEye 360; GPS; miniature CubeSats for education and research; and military/defense satellites.

Loading next visibility...
Identifier
45556, 2020-025AB
Orbit
LEO
Last TLE update
7 hours ago
Origin
Manufacturer
SpaceX/Seattle
Mission
Partially operational Commercial Communications
Bus & Motor
STARLINK, Unknown motor
Mass
260 kg wet, ~248 kg dry
Launch date (UTC)
2020-04-22 (5 years ago)
Launch vehicle
FALCON 9
Launch site
Air Force Eastern Test Range (AFETR)
Object type
Payload
Rocket body
Debris
Shape & HBR
Box + 1 Pan, 8.86 m
Radar Cross Section
13.562 m², Large (>1 m²)

Expand to show TLE details & history

TLE from 7 hours ago
0 STARLINK-1334
1 45556U 20025AB  25129.00002315  .00377110  65821-4  10738-2 0  9990
2 45556  53.0435 315.4091 0004870 242.7841 147.6055 15.92779227  5832
Epoch: 2025-05-09T00:00Z
Definitive object data (Epoch: 2025-05-09T00:00:02Z)
Latitude
23.93166°
Longitude
107.72914°
Altitude
298.106 km
Speed
7.731 km/s
True Right ascension
22h 19m 11s
True Declination
23° 47' 44"
Sunlit
Object was in daylight at TLE epoch
Visualization TLE readout
Latitude
-38.76304°
Longitude
-56.20467°
Altitude
303.379 km
Speed
7.727 km/s
Apparent Right ascension
07h 26m 07s
Apparent Declination
-60° 40' 06"
Sunlit
Object is in full shadow
Visualization observer readout
Local Sidereal Time
15:00:44
Azimuth
219.592° SW
Elevation
-45.248°
Doppler factor
1
Orbital elements
Apogee altitude
298.042 km
Perigee altitude
291.542 km
Semi-major axis
6,672.929 km
Eccentricity
0.000487
Inclination
53.0435°
RAAN
315.4091°
Arg. of periapsis
242.7841°
True anomaly
147.63538°
Mean anomaly
147.6055°
Eccentric anomaly
147.62044°
Mean motion
3.9817 °/min
BSTAR
0.0010738
Orbital period
90.41 mins
Loading maneuver chart data...
Loading SW <> Apogee altitude chart data...
Loading historical data...
Loading historical data...
Loading historical data...
Loading historical data...
Loading historical data...
Loading historical data...
Loading historical data...

STARLINK-1334 Visibility forecast

Observer location: undefined°, undefined°

Span
Click to sort rows by Start time (UTC) header in descending order
Start Az.
Max El. time (UTC)
Max El. Az.
Max El.
End time (UTC)
End Az.
4 mins2025-05-09 15:06:50.271Z224.46° SW2025-05-09 15:08:50.271Z186.674° SSW43.298°2025-05-09 15:10:50.271Z54.117° ENE
|